パンスターズ彗星

477P/PanSTARRS (2023)

English version
Home page
Updated on May 15, 2024

---------------------------------------------------------------------

・ プロフィール

符号 477P/2023 V8
検出日 2023年11月15日
検出光度 20.6等
検出者 T. Oribe (Saji, Tottori, Japan)

・ 写真集

・ 軌道要素

Epoch 2024 Mar. 31.0 TT = JDT 2460400.5
T 2023 Dec. 26.74489 TT                                 Rudenko
q   1.7506720            (2000.0)            P               Q
n   0.18921831     Peri.  306.01072     +0.98754172     -0.08400829
a   3.0048810      Node    59.15902     +0.13713155     +0.87416656
e   0.4173906      Incl.    8.91506     -0.07717700     +0.47830475
P   5.21
>From 327 observations 2013 July 14-2024 Jan. 28, mean residual 0".8.

・ 光度変化

        m1 = -27   + 5 logΔ + 180 log r(t - 5)  [ ,5]  (              〜2023年12月31日)
        m1 =  12.4 + 5 logΔ +  18 log r         [5, ]  (2023年12月31日〜              )

---------------------------------------------------------------------

軌道要素はM.P.E.C. 2024-G193に掲載されたものです。
光度グラフはComet for Windowsで作成したものです。

---------------------------------------------------------------------

Copyright(C) Seiichi Yoshida (comet@aerith.net). All rights reserved.